Weather History for Vicksburg, MS

Change the Weather History Date:

Thursday, August 22, 2013

  Actual Average Record
Temperature  
Mean Temperature 81 °F 80 °F  
Max Temperature 94 °F 92 °F 101 °F (1980)
Min Temperature 68 °F 69 °F 53 °F (1956)
Degree Days  
Heating Degree Days 0 0  
Month to date heating degree days 0 0  
Since 1 June heating degree days 0 0  
Since 1 July heating degree days 0 0  
Cooling Degree Days 16 15  
Month to date cooling degree days 358 361  
Year to date cooling degree days 1578 1659  
Since 1 June cooling degree days 1248 1289  
Growing Degree Days 30 (Base 50)    
Moisture  
Dew Point 71 °F    
Average Humidity 75    
Maximum Humidity 100    
Minimum Humidity 49    
Precipitation  
Precipitation 0.00 in 0.15 in 1.43 in (1988)
Month to date precipitation 1.05 2.40  
Year to date precipitation 48.15 35.32  
Sea Level Pressure  
Sea Level Pressure 30.09 in    
Wind  
Wind Speed 2 mph (ESE)    
Max Wind Speed 9 mph    
Max Gust Speed 15 mph    
Visibility 5 miles    
Events Fog , Rain    
T = Trace of Precipitation, MM = Missing Value Source: NWS Daily Summary

Daily Weather History Graph

Daily Weather History Graph

Search for Another Location

Airport:

Trip Planner

Search our weather history database for the weather conditions in past years. The results will help you decide how hot, cold, wet, or windy it might be!

Date:

Astronomy

Aug. 22, 2013 Rise Set
Actual Time 6:32 AM CDT 7:40 PM CDT
Civil Twilight 6:07 AM CDT 8:05 PM CDT
Nautical Twilight 5:37 AM CDT 8:35 PM CDT
Astronomical Twilight 5:05 AM CDT 9:07 PM CDT
Moon 8:36 PM CDT (8/22) 8:12 AM CDT (8/22)
Length of Visible Light 13h 58m
Length of Day
13h 07m
Waning Gibbous, 96% of the Moon is Illuminated
Aug 22
Waning Gibbous
Aug 28
Last Quarter
Sep 5
New
Sep 12
First Quarter
Sep 19
Full

Hourly Weather History & Observations

Time (CDT) Temp. Heat Index Dew Point Humidity Pressure Visibility Wind Dir Wind Speed Gust Speed Precip Events Conditions
12:08 AM 71.6 °F - 71.6 °F 100% 30.09 in 2.0 mi Calm Calm - N/A   Clear
12:19 AM 71.6 °F - 71.6 °F 100% 30.10 in 1.8 mi Calm Calm - N/A   Clear
12:24 AM 71.6 °F - 71.6 °F 100% 30.09 in 3.0 mi Calm Calm - N/A   Clear
12:53 AM 71.1 °F - 69.1 °F 93% 30.11 in 1.2 mi Calm Calm - N/A   Clear
1:06 AM 71.6 °F - 69.8 °F 94% 30.09 in 3.0 mi Calm Calm - N/A   Clear
1:24 AM 71.6 °F - 69.8 °F 94% 30.09 in 2.0 mi South 3.5 mph - 0.00 in Rain Light Rain
1:33 AM 71.6 °F - 69.8 °F 94% 30.09 in 10.0 mi Calm Calm - 0.00 in   Clear
1:53 AM 72.0 °F - 71.1 °F 97% 30.10 in 7.0 mi SW 3.5 mph - 0.00 in   Clear
2:15 AM 69.8 °F - 69.8 °F 100% 30.08 in 1.5 mi Calm Calm - N/A   Clear
2:28 AM 71.6 °F - 69.8 °F 94% 30.08 in 4.0 mi Calm Calm - N/A   Clear
2:53 AM 71.1 °F - 69.1 °F 93% 30.10 in 6.0 mi Calm Calm - N/A   Clear
3:08 AM 69.8 °F - 69.8 °F 100% 30.09 in 1.8 mi Calm Calm - N/A   Clear
3:17 AM 69.8 °F - 69.8 °F 100% 30.08 in 0.5 mi Calm Calm - N/A Fog Fog
3:26 AM 69.8 °F - 69.8 °F 100% 30.08 in 1.0 mi Calm Calm - N/A   Clear
3:50 AM 69.8 °F - 69.8 °F 100% 30.09 in 0.5 mi Calm Calm - N/A Fog Fog
3:53 AM 70.0 °F - 69.1 °F 97% 30.10 in 0.5 mi Calm Calm - N/A Fog Fog
4:35 AM 69.8 °F - 69.8 °F 100% 30.09 in 2.5 mi Calm Calm - N/A   Clear
4:42 AM 68.0 °F - 66.2 °F 94% 30.09 in 0.8 mi Calm Calm - N/A   Clear
4:53 AM 69.1 °F - 69.1 °F 100% 30.11 in 0.8 mi Calm Calm - N/A   Clear
5:00 AM 68.0 °F - 68.0 °F 100% 30.09 in 1.5 mi Calm Calm - N/A   Clear
5:11 AM 68.0 °F - 68.0 °F 100% 30.09 in 0.5 mi Calm Calm - N/A Fog Fog
5:41 AM 68.0 °F - 68.0 °F 100% 30.09 in 1.0 mi Calm Calm - N/A   Clear
5:53 AM 68.0 °F - 68.0 °F 100% 30.11 in 1.8 mi Calm Calm - N/A   Clear
6:00 AM 68.0 °F - 68.0 °F 100% 30.10 in 2.5 mi Calm Calm - N/A   Clear
6:12 AM 69.8 °F - 68.0 °F 94% 30.10 in 1.0 mi Calm Calm - N/A   Clear
6:20 AM 69.8 °F - 68.0 °F 94% 30.10 in 0.2 mi Calm Calm - N/A Fog Fog
6:42 AM 68.0 °F - 66.2 °F 94% 30.10 in 0.2 mi Calm Calm - N/A Fog Fog
6:53 AM 69.1 °F - 68.0 °F 96% 30.12 in 0.2 mi Calm Calm - N/A Fog Fog
7:19 AM 71.6 °F - 71.6 °F 100% 30.11 in 1.2 mi Calm Calm - N/A   Partly Cloudy
7:23 AM 71.6 °F - 71.6 °F 100% 30.11 in 3.0 mi Calm Calm - N/A   Partly Cloudy
7:53 AM 77.0 °F - 75.0 °F 94% 30.13 in 8.0 mi ESE 3.5 mph - N/A   Clear
8:53 AM 82.0 °F 88.6 °F 75.0 °F 79% 30.14 in 10.0 mi Calm Calm - N/A   Clear
9:53 AM 84.9 °F 92.1 °F 73.9 °F 69% 30.13 in 10.0 mi Calm Calm - N/A   Clear
10:19 AM 82.4 °F 89.5 °F 75.2 °F 79% 30.12 in 10.0 mi Calm Calm - N/A   Mostly Cloudy
10:51 AM 87.8 °F 95.6 °F 73.4 °F 62% 30.12 in 10.0 mi Calm Calm - N/A   Mostly Cloudy
10:53 AM 87.1 °F 94.5 °F 73.0 °F 63% 30.13 in 10.0 mi Variable 3.5 mph - N/A   Mostly Cloudy
11:53 AM 90.0 °F 96.4 °F 71.1 °F 54% 30.12 in 10.0 mi Variable 3.5 mph - N/A   Clear
12:53 PM 89.1 °F 97.0 °F 73.0 °F 59% 30.10 in 10.0 mi NNE 3.5 mph - N/A   Scattered Clouds
1:53 PM 91.9 °F 99.5 °F 72.0 °F 52% 30.08 in 10.0 mi Variable 4.6 mph - N/A   Partly Cloudy
2:53 PM 93.9 °F 103.4 °F 73.0 °F 51% 30.05 in 10.0 mi North 5.8 mph - N/A   Clear
3:53 PM 93.0 °F 100.7 °F 72.0 °F 50% 30.02 in 10.0 mi NNE 5.8 mph - N/A   Clear
4:53 PM 93.0 °F 100.7 °F 72.0 °F 50% 30.01 in 10.0 mi East 4.6 mph - N/A   Partly Cloudy
5:53 PM 88.0 °F 96.5 °F 73.9 °F 63% 30.01 in 10.0 mi SSE 5.8 mph - N/A   Clear
6:53 PM 87.1 °F 94.5 °F 73.0 °F 63% 30.00 in 10.0 mi SE 3.5 mph - N/A   Clear
7:53 PM 81.0 °F 86.7 °F 75.0 °F 82% 30.01 in 10.0 mi SSE 3.5 mph - N/A   Clear
8:53 PM 75.0 °F - 73.0 °F 94% 30.02 in 10.0 mi Calm Calm - N/A   Clear
9:53 PM 73.9 °F - 72.0 °F 93% 30.04 in 10.0 mi Calm Calm - N/A   Clear
10:53 PM 73.0 °F - 72.0 °F 96% 30.04 in 9.0 mi Calm Calm - N/A   Clear
11:53 PM 73.0 °F - 72.0 °F 96% 30.03 in 3.0 mi Calm Calm - N/A   Clear